User: anonymous   Login
Location: Unspecified
(0.0000°N, 0.0000°E)
Time: 03:07:59
(UTC+00:00)
Language:

CUTE 1.7 + AOD 2 - Orbit

View from above orbital plane
View from above orbital plane
View from above satellite
View from above satellite

Ground track
Ground track

The orbit data is extracted from the following two-line orbital elements,

1 32785U 08021C   18111.49830813 +.00000304 +00000-0 +38671-4 0  9990
2 32785 097.5501 126.3760 0012013 221.1697 138.8615 14.88098724540679
Epoch (UTC): 21 April 2018 11:57:33
Eccentricity: 0.0012013
inclination: 97.5501°
perigee height: 595 km
apogee height: 612 km
right ascension of ascending node: 126.3760°
argument of perigee: 221.1697°
revolutions per day: 14.88098724
mean anomaly at epoch: 138.8615°
orbit number at epoch: 54067

The dashed part of the orbit path shows where the satellite is in the earth's shadow,  

DLR